Location: Chantarel
(45.1638°N, 1.7873°E)
Time: 14:28:15
(UTC+00:00)

SL-4 R/B - Pass Details

Date: 03 March 2021
Orbit: 428 x 663 km, 51.6° (Epoch: 11 April)

Event Time Altitude Azimuth Distance (km) Brightness Sun altitude
Rises 18:10:13 0° 289° (WNW) 2,523 6.9 -5.6°
Reaches altitude 10° 18:12:39 10° 301° (WNW) 1,609 5.4 -6.0°
Maximum altitude 18:15:48 28° 2° (N) 878 3.0 -6.6°
Drops below altitude 10° 18:18:49 10° 64° (ENE) 1,544 3.7 -7.1°
Enters shadow 18:19:14 - 67° (ENE) 1,690 3.9 -7.2°
